[[{"header":{"parameterUnit":"m.s-1","parameterCategory":1,"la1":30.2991,"la2":30.254,"lo1":-89.0895,"lo2":-89.0444,"dy":0.0017,"dx":0.0017,"nx":28,"ny":28,"refTime":"2025-08-28T03:00:00:Z","depth":0,"parameterNumber":2,"parameterNumberName":"U-component_of_WINDS"},"data":[0,0,0,0,0,0,0,0,0,0,0,0,0,0,0,0,0,0,0,0,0,0,0,0,0,0,0,0,0,0,0,0,0,0,0,0,0,0,0,0,0,0,0,0,0,0,0,0,0,0,0,0,0,0,0,0,0,0,-0.6855,-0.6855,0,-0.6853,-0.6853,-0.6853,-0.6818,-0.6817,-0.6816,-0.6815,-0.6815,-0.6816,-0.6817,0,0,0,0,0,0,0,0,0,0,0,0,0,-0.6829,-0.683,-0.6855,-0.6855,-0.6855,-0.6853,-0.6853,-0.6853,-0.6818,-0.6817,-0.6816,-0.6815,-0.6815,-0.6816,-0.6817,0,0,0,0,0,0,0,0,0,0,0,0,0,-0.6835,-0.683,-0.6855,-0.6837,-0.6836,-0.6853,-0.6853,-0.6853,-0.6818,-0.6817,-0.6816,-0.6814,-0.6814,-0.6816,-0.6817,-0.6852,0,0,-0.6821,-0.6821,0,0,0,0,0,0,0,0,-0.6835,-0.6836,-0.684,-0.6839,-0.6837,-0.6834,-0.6844,-0.6853,-0.6819,-0.6825,-0.6815,-0.6814,-0.6823,-0.6823,-0.6826,-0.6852,-0.6852,-0.6821,-0.6822,-0.6822,-0.6822,0,0,0,0,0,0,0,-0.6835,-0.6836,-0.6854,-0.684,-0.6838,-0.683,-0.6829,-0.6845,-0.6832,-0.6824,-0.6822,-0.6822,-0.6822,-0.6825,-0.6826,-0.6852,-0.6821,-0.6822,-0.6823,-0.6823,-0.6905,-0.6907,0,0,0,0,0,0,-0.6837,-0.6836,-0.6854,-0.6854,-0.6833,-0.6831,-0.6831,-0.6837,-0.6831,-0.6829,-0.6823,-0.682,-0.6823,-0.6824,-0.6825,-0.6865,-0.6822,-0.6823,-0.6824,-0.6904,-0.6906,-0.6907,0,0,0,0,0,0,-0.6836,-0.6839,-0.6854,-0.6845,-0.6846,-0.6833,-0.684,-0.6837,-0.684,-0.683,-0.6828,-0.6829,-0.6822,-0.6824,-0.6845,-0.6865,-0.6824,-0.6825,-0.6902,-0.6905,-0.6907,-0.6946,0,0,0,0,0,0,-0.6836,-0.6839,-0.6852,-0.6845,-0.6847,-0.6874,-0.6841,-0.6838,-0.6842,-0.6839,-0.6835,-0.6833,-0.6821,-0.6844,-0.6846,-0.6866,-0.6826,-0.69,-0.6903,-0.6906,-0.6943,-0.6949,-0.6955,0,0,0,0,0,-0.6835,-0.6863,-0.6852,-0.6855,-0.6862,-0.6875,-0.6876,-0.6862,-0.6844,-0.6857,-0.6851,-0.6833,-0.6862,-0.6846,-0.6849,-0.6869,-0.6899,-0.6902,-0.6906,-0.694,-0.6948,-0.6955,0,0,0,0,0,0,-0.6873,-0.6862,-0.685,-0.6877,-0.6877,-0.6869,-0.6885,-0.687,-0.6876,-0.6872,-0.6855,-0.6854,-0.6878,-0.6876,-0.6858,-0.6902,-0.6878,-0.6882,-0.6903,-0.691,-0.6916,-0.6916,-0.6827,0,0,0,0,0,-0.6885,-0.6896,-0.6886,-0.691,-0.6911,-0.6898,-0.6903,-0.6892,-0.6892,-0.6892,-0.6887,-0.6888,-0.6897,-0.6903,-0.6911,-0.6942,-0.6941,-0.6958,-0.6964,-0.6968,-0.6972,-0.6988,-0.6995,-0.6918,-0.6918,-0.6918,0,0,-0.6909,-0.6904,-0.6912,-0.6918,-0.6917,-0.6929,-0.6899,-0.6913,-0.6922,-0.6894,-0.6914,-0.691,-0.691,-0.6936,-0.6948,-0.6935,-0.6993,-0.6973,-0.6977,-0.6978,-0.6992,-0.6999,-0.7006,-0.692,-0.692,-0.6919,0,0,-0.6959,-0.6956,-0.6976,-0.6976,-0.6974,-0.6965,-0.697,-0.6964,-0.6961,-0.698,-0.6959,-0.697,-0.6986,-0.6987,-0.6989,-0.7039,-0.7023,-0.7042,-0.7073,-0.7088,-0.7094,-0.71,-0.7117,-0.7124,-0.7045,-0.7046,-0.7046,0,-0.6989,-0.7006,-0.6989,-0.7004,-0.7007,-0.6982,-0.7002,-0.7003,-0.7004,-0.7007,-0.6993,-0.7012,-0.701,-0.7036,-0.7048,-0.7051,-0.7056,-0.7042,-0.7095,-0.71,-0.7105,-0.7121,-0.7128,-0.7048,-0.7048,-0.7047,-0.7047,0,-0.7043,-0.7055,-0.7072,-0.7073,-0.7078,-0.7095,-0.7081,-0.7089,-0.7077,-0.7069,-0.7089,-0.7086,-0.7093,-0.7098,-0.7087,-0.7122,-0.7114,-0.7098,-0.7073,-0.7115,-0.713,-0.7136,-0.7051,-0.705,-0.705,-0.7049,0,0,-0.7117,-0.7108,-0.7115,-0.7115,-0.7111,-0.712,-0.7136,-0.7142,-0.7149,-0.715,-0.7164,-0.7178,-0.7162,-0.7165,-0.7154,-0.7168,-0.7207,-0.7149,-0.7149,-0.716,-0.7245,-0.7257,-0.7265,-0.7196,-0.7197,-0.7198,-0.7245,0,-0.7165,-0.7193,-0.7178,-0.7207,-0.7218,-0.7194,-0.7209,-0.7208,-0.7201,-0.721,-0.7203,-0.7213,-0.7192,-0.7193,-0.7206,-0.7199,-0.7223,-0.7196,-0.7209,-0.7209,-0.7209,-0.7273,-0.7286,-0.7331,-0.7251,-0.7252,-0.7252,0,-0.7225,-0.7228,-0.7259,-0.7252,-0.7256,-0.727,-0.7273,-0.7282,-0.728,-0.7275,-0.7278,-0.7263,-0.7279,-0.7254,-0.7276,-0.7257,-0.7261,-0.7259,-0.726,-0.7261,-0.7233,-0.7275,-0.7345,-0.7351,-0.7262,-0.7261,-0.726,0,-0.7276,-0.7288,-0.7308,-0.7309,-0.7302,-0.7311,-0.7309,-0.7306,-0.7311,-0.7314,-0.7317,-0.7322,-0.7326,-0.733,-0.7318,-0.7301,-0.7341,-0.7315,-0.7337,-0.7338,-0.7347,-0.7346,-0.7418,-0.735,-0.735,-0.735,-0.735,0,-0.7331,-0.7351,-0.733,-0.7343,-0.7364,-0.7346,-0.7368,-0.7363,-0.7361,-0.7372,-0.7352,-0.7362,-0.7345,-0.7354,-0.7344,-0.7363,-0.7365,-0.7361,-0.7358,-0.7363,-0.7363,-0.7366,-0.7362,-0.7351,-0.7351,-0.7351,-0.735,0,-0.7392,-0.7379,-0.7399,-0.739,-0.7388,-0.7404,-0.7397,-0.7408,-0.74,-0.7414,-0.7416,-0.7404,-0.7414,-0.7401,-0.741,-0.7403,-0.743,-0.7422,-0.743,-0.7428,-0.745,-0.7448,-0.7526,-0.7535,-0.7461,-0.7462,-0.7463,0,-0.7428,-0.7442,-0.7435,-0.744,-0.7439,-0.7448,-0.7452,-0.7435,-0.744,-0.744,-0.7451,-0.7459,-0.7464,-0.748,-0.7472,-0.7479,-0.7471,-0.7498,-0.7472,-0.7476,-0.7472,-0.7471,-0.7472,-0.7503,-0.7504,-0.7505,-0.7506,0,-0.7493,-0.7486,-0.7492,-0.7496,-0.7501,-0.7504,-0.7505,-0.7511,-0.7493,-0.75,-0.7509,-0.7513,-0.7521,-0.7529,-0.7534,-0.7531,-0.7516,-0.7514,-0.7519,-0.7524,-0.7528,-0.7526,-0.7444,-0.7512,-0.7511,-0.7511,-0.7511,-0.751,-0.7542,-0.7553,-0.755,-0.7557,-0.7556,-0.7558,-0.7567,-0.756,-0.7567,-0.7572,-0.7562,-0.7574,-0.7572,-0.7576,-0.7575,-0.7584,-0.7573,-0.7581,-0.7583,-0.7585,-0.7588,-0.7526,-0.7585,-0.7585,-0.7585,-0.7585,-0.7584,0,-0.7606,-0.7602,-0.7609,-0.7611,-0.7617,-0.7601,-0.7601,-0.7607,-0.7618,-0.7617,-0.7622,-0.7633,-0.764,-0.7633,-0.7639,-0.7647,-0.764,-0.765,-0.7649,-0.7649,-0.7598,-0.7593,-0.7655,-0.7655,-0.7655,-0.7655,-0.7655,-0.7655,-0.764,-0.7658,-0.765,-0.7668,-0.7664,-0.7675,-0.7677,-0.7678,-0.7677,-0.7689,-0.7695,-0.769,-0.7686,-0.7692,-0.7698,-0.7696,-0.7699,-0.7711,-0.7706,-0.7659,-0.7652,-0.7646,-0.764,-0.7711,-0.7712,-0.7755,-0.7756,-0.7756]},{"header":{"parameterUnit":"m.s-1","parameterCategory":1,"la1":30.2991,"la2":30.254,"lo1":-89.0895,"lo2":-89.0444,"dy":0.0017,"dx":0.0017,"nx":28,"ny":28,"refTime":"2025-08-28T03:00:00:Z","depth":0,"parameterNumber":3,"parameterNumberName":"V-component_of_WINDS"},"data":[0,0,0,0,0,0,0,0,0,0,0,0,0,0,0,0,0,0,0,0,0,0,0,0,0,0,0,0,0,0,0,0,0,0,0,0,0,0,0,0,0,0,0,0,0,0,0,0,0,0,0,0,0,0,0,0,0,0,-0.0647,-0.0649,0,-0.078,-0.0782,-0.0783,-0.0849,-0.0849,-0.0849,-0.0849,-0.0988,-0.0991,-0.0995,0,0,0,0,0,0,0,0,0,0,0,0,0,-0.0452,-0.0455,-0.0647,-0.0649,-0.065,-0.078,-0.0782,-0.0783,-0.0849,-0.0849,-0.0849,-0.0849,-0.0987,-0.0991,-0.0995,0,0,0,0,0,0,0,0,0,0,0,0,0,-0.0556,-0.0456,-0.0647,-0.0698,-0.0704,-0.0779,-0.0782,-0.0784,-0.0849,-0.0849,-0.0849,-0.0849,-0.0985,-0.099,-0.0996,-0.103,0,0,-0.1013,-0.1015,0,0,0,0,0,0,0,0,-0.055,-0.0563,-0.0689,-0.0695,-0.0702,-0.0798,-0.0764,-0.0867,-0.0849,-0.0794,-0.0849,-0.0849,-0.0925,-0.0935,-0.096,-0.1037,-0.1043,-0.1013,-0.1017,-0.1019,-0.1021,0,0,0,0,0,0,0,-0.0543,-0.0558,-0.07,-0.0691,-0.0699,-0.0716,-0.0731,-0.0784,-0.0858,-0.0799,-0.0804,-0.0819,-0.0928,-0.0955,-0.0964,-0.1045,-0.1013,-0.1018,-0.1022,-0.1024,-0.1157,-0.1157,0,0,0,0,0,0,-0.0527,-0.0551,-0.0696,-0.0704,-0.0624,-0.0719,-0.0736,-0.0767,-0.0858,-0.0871,-0.0818,-0.0821,-0.0945,-0.0958,-0.0969,-0.1016,-0.1019,-0.1024,-0.1028,-0.1157,-0.1157,-0.1157,0,0,0,0,0,0,-0.0522,-0.0539,-0.069,-0.0629,-0.065,-0.0723,-0.0757,-0.077,-0.0796,-0.0872,-0.0886,-0.0832,-0.0946,-0.0961,-0.1015,-0.1021,-0.1027,-0.1032,-0.1156,-0.1157,-0.1157,-0.1109,0,0,0,0,0,0,-0.0517,-0.0537,-0.055,-0.0629,-0.0652,-0.0732,-0.0758,-0.0772,-0.0805,-0.081,-0.0888,-0.0902,-0.0947,-0.1006,-0.102,-0.1029,-0.1036,-0.1156,-0.1157,-0.1157,-0.111,-0.1107,-0.1105,0,0,0,0,0,-0.0509,-0.0532,-0.0551,-0.0568,-0.067,-0.0733,-0.0746,-0.0797,-0.0806,-0.082,-0.0869,-0.0899,-0.1018,-0.1011,-0.1027,-0.1038,-0.1156,-0.1156,-0.1157,-0.1111,-0.1108,-0.1105,0,0,0,0,0,0,-0.0454,-0.0543,-0.0565,-0.0614,-0.0665,-0.0744,-0.0763,-0.0792,-0.0843,-0.0845,-0.0908,-0.0925,-0.0972,-0.1011,-0.1001,-0.1076,-0.109,-0.1094,-0.105,-0.1047,-0.1045,-0.1035,-0.1041,0,0,0,0,0,-0.0447,-0.0489,-0.0565,-0.0601,-0.0625,-0.0689,-0.0719,-0.0753,-0.0809,-0.0832,-0.0885,-0.0938,-0.0988,-0.102,-0.107,-0.1116,-0.1134,-0.1131,-0.1129,-0.1126,-0.1129,-0.1156,-0.1156,-0.1159,-0.1159,-0.1159,0,0,-0.0434,-0.0488,-0.0511,-0.0591,-0.0635,-0.0678,-0.0708,-0.0752,-0.0785,-0.0839,-0.0892,-0.0932,-0.0997,-0.1046,-0.1071,-0.108,-0.1132,-0.1127,-0.1124,-0.1129,-0.1157,-0.1157,-0.1156,-0.1159,-0.1159,-0.1159,0,0,-0.0431,-0.0476,-0.0511,-0.0554,-0.0619,-0.0662,-0.067,-0.0744,-0.0773,-0.0827,-0.0869,-0.0909,-0.0993,-0.1037,-0.1071,-0.1085,-0.1115,-0.1099,-0.1086,-0.1112,-0.1112,-0.1112,-0.1118,-0.1119,-0.1102,-0.1101,-0.1101,0,-0.0407,-0.0472,-0.0525,-0.0567,-0.0601,-0.0651,-0.0687,-0.0726,-0.0805,-0.0828,-0.0837,-0.0943,-0.099,-0.1051,-0.1054,-0.1079,-0.1091,-0.1091,-0.1108,-0.1108,-0.1109,-0.1115,-0.1117,-0.1099,-0.1099,-0.11,-0.11,0,-0.0439,-0.0484,-0.0504,-0.0578,-0.0614,-0.0653,-0.0712,-0.0743,-0.0774,-0.0816,-0.0871,-0.0928,-0.0991,-0.1008,-0.1039,-0.1073,-0.1077,-0.1096,-0.1111,-0.1106,-0.1112,-0.1115,-0.1096,-0.1097,-0.1097,-0.1098,0,0,-0.0406,-0.0508,-0.0514,-0.0548,-0.0624,-0.066,-0.0701,-0.0761,-0.0787,-0.0839,-0.0876,-0.0945,-0.0963,-0.1001,-0.1038,-0.1061,-0.1068,-0.1077,-0.108,-0.1074,-0.111,-0.1095,-0.1097,-0.1088,-0.1089,-0.1089,-0.1104,0,-0.0415,-0.049,-0.0538,-0.0594,-0.0636,-0.0684,-0.072,-0.077,-0.081,-0.0853,-0.0898,-0.0946,-0.0966,-0.0989,-0.1013,-0.1062,-0.1076,-0.1062,-0.1124,-0.1125,-0.1106,-0.11,-0.1085,-0.1096,-0.1107,-0.1108,-0.1108,0,-0.0435,-0.0485,-0.0545,-0.0616,-0.0635,-0.0666,-0.0725,-0.0765,-0.0824,-0.0851,-0.0893,-0.093,-0.0976,-0.0987,-0.1052,-0.104,-0.1069,-0.1096,-0.1098,-0.1106,-0.1117,-0.1109,-0.1101,-0.1103,-0.1112,-0.1112,-0.1112,0,-0.0405,-0.0488,-0.0534,-0.0562,-0.0646,-0.0666,-0.0702,-0.0761,-0.0794,-0.0846,-0.0868,-0.0925,-0.0956,-0.0999,-0.1051,-0.1054,-0.1111,-0.1126,-0.1136,-0.1134,-0.1146,-0.1145,-0.1143,-0.1163,-0.1163,-0.1163,-0.1163,0,-0.041,-0.0445,-0.0522,-0.055,-0.0591,-0.0646,-0.0685,-0.0725,-0.0777,-0.0815,-0.086,-0.0895,-0.0961,-0.1004,-0.1045,-0.1092,-0.1106,-0.113,-0.1141,-0.1127,-0.1123,-0.1146,-0.1147,-0.1164,-0.1163,-0.1163,-0.1163,0,-0.0384,-0.0437,-0.0491,-0.0565,-0.0585,-0.0611,-0.0676,-0.0706,-0.0747,-0.0795,-0.0809,-0.0876,-0.0929,-0.0984,-0.1057,-0.1084,-0.113,-0.1145,-0.111,-0.1116,-0.1123,-0.1122,-0.1137,-0.1142,-0.1157,-0.1157,-0.1157,0,-0.0384,-0.0411,-0.0488,-0.0516,-0.0551,-0.0596,-0.0629,-0.0685,-0.0718,-0.0787,-0.0809,-0.0865,-0.0913,-0.0995,-0.1051,-0.1106,-0.1123,-0.1124,-0.1132,-0.1116,-0.1124,-0.1121,-0.1125,-0.1122,-0.1122,-0.1121,-0.1121,0,-0.0378,-0.0402,-0.0448,-0.0504,-0.0542,-0.0589,-0.0637,-0.0658,-0.0723,-0.0758,-0.0812,-0.0849,-0.0923,-0.0978,-0.104,-0.1079,-0.1111,-0.1118,-0.1123,-0.1109,-0.1088,-0.11,-0.1104,-0.1118,-0.1118,-0.1118,-0.1118,-0.1119,-0.0365,-0.0392,-0.045,-0.05,-0.0542,-0.0586,-0.0617,-0.0663,-0.0709,-0.0772,-0.0802,-0.0857,-0.0915,-0.1002,-0.1039,-0.1083,-0.1093,-0.11,-0.1102,-0.1103,-0.11,-0.108,-0.1095,-0.1095,-0.1095,-0.1095,-0.1095,0,-0.0362,-0.0401,-0.0447,-0.0512,-0.0551,-0.0577,-0.0632,-0.0663,-0.071,-0.0761,-0.0807,-0.0869,-0.0923,-0.0982,-0.104,-0.1064,-0.108,-0.1077,-0.1076,-0.1085,-0.1088,-0.1078,-0.1063,-0.1063,-0.1063,-0.1063,-0.1063,-0.1063,-0.0365,-0.0411,-0.0443,-0.0511,-0.0551,-0.0603,-0.0632,-0.0673,-0.0714,-0.0781,-0.0826,-0.0864,-0.0919,-0.098,-0.1031,-0.1047,-0.1067,-0.106,-0.108,-0.1082,-0.1084,-0.1087,-0.1078,-0.1063,-0.1063,-0.1073,-0.1073,-0.1073]}]]